Simultaneous Nadir Overpasses (SNOs) Predictions

Prediction of SNOs between NOAA-20 and LANDSAT-8 Satellite Orbit:

Table of predicted SNOs for the next 14.0 days since TLE Epoch: 8/31/2024
Index Date (NOAA-20) Time (NOAA-20) Lat,Lon (NOAA-20) SZA (NOAA-20 ) Date (LANDSAT-8) Time (LANDSAT-8) Lat,Lon (LANDSAT-8) SZA (LANDSAT-8 ) Distance(km) Time Diff (sec)
1 08/31/2024 06:44:30 70.94, 73.72 62.49 08/31/2024 06:45:36 70.83, 76.04 62.31 85.34 66
2 08/31/2024 07:34:57 -70.04,-117.54 118.44 08/31/2024 07:35:18 -70.06,-117.46 118.43 3.44 21
3 08/31/2024 08:25:40 69.89, 49.99 61.42 08/31/2024 08:24:46 69.91, 49.96 61.44 1.76 54
4 09/02/2024 23:01:08 70.24,-169.38 62.73 09/02/2024 23:02:20 70.17,-169.07 62.64 14.47 72
5 09/02/2024 23:51:47 -69.98, -1.66 117.54 09/02/2024 23:51:51 -70.00, -1.67 117.51 3.04 4
6 09/03/2024 00:42:31 69.88, 165.79 62.38 09/03/2024 00:41:18 69.90, 165.83 62.40 2.08 73
7 09/05/2024 15:17:56 70.09, -53.37 63.56 09/05/2024 15:18:52 70.08, -53.32 63.54 2.24 56
8 09/05/2024 16:08:38 -69.98, 114.12 116.55 09/05/2024 16:08:22 -69.97, 114.16 116.56 1.71 16
9 09/05/2024 16:59:09 69.20, -77.44 62.67 09/05/2024 16:58:00 69.26, -79.17 62.77 68.47 69
10 09/08/2024 07:34:45 70.01, 62.54 64.47 09/08/2024 07:35:22 70.02, 62.48 64.48 2.64 37
11 09/08/2024 08:25:28 -69.94,-130.05 115.59 09/08/2024 08:24:52 -69.92,-130.03 115.62 3.35 36
12 09/10/2024 23:01:03 -70.76, 9.84 113.76 09/10/2024 23:02:12 -70.65, 11.65 113.91 67.56 69
13 09/10/2024 23:51:34 70.00, 178.35 65.47 09/10/2024 23:51:49 69.99, 178.33 65.46 1.12 15
14 09/11/2024 00:42:16 -69.88, -14.16 114.65 09/11/2024 00:41:19 -69.89, -14.18 114.63 1.40 57
15 09/13/2024 15:17:40 -70.08, 126.70 113.45 09/13/2024 15:18:49 -70.05, 126.66 113.48 3.27 69
16 09/13/2024 16:08:23 69.95, -65.79 66.44 09/13/2024 16:08:16 69.93, -65.86 66.42 3.07 7
17 09/13/2024 16:59:01 -69.61, 102.01 113.90 09/13/2024 16:57:49 -69.66, 101.41 113.83 24.16 72



Historial Predications of SNOs between NOAA-20 and LANDSAT-8
